Rbgn^[z[y[W
メイン
   新天体発見情報
     Comet P/2013 CU129 (PANSTARRS)
投稿するにはまず登録を

フラット表示 前のトピック | 次のトピック
投稿者 スレッド
佐藤裕久
投稿日時: 2013-6-15 4:53
モデレータ
登録日: 2005-6-12
居住地: 日本
投稿: 1997
オンライン
Comet P/2013 CU129 (PANSTARRS)

2月13日UT、Haleakalaの1.8-m Pan-STARRS1望遠鏡で得た画像から21.0等の外見上の小惑星状
天体が発見され、MPEC 2013-D15に2013 CU129の仮符号がつけられ発表された(2月1日に発見前
観測があった)。
6月2日UT、Peter Veres, Richard Wainscoat, Henry HsiehとMarco Micheliが、Pan-STARRS
望遠鏡で得た4枚のwバンド画像からp.a.約90°に4"の短い尾のある彗星状であることがわかった。
6月5.28日UT、MicheliとWainscoatが、Mauna KeaにあるCanada-France-Hawaii Telescopeで
得たrバンドフォローアップ観測から、p.a. 約100°に明確な40"の尾が見えた。

発見位置は次のとおり、

     2013 UT             R.A. (2000) Decl.       Mag.
     Feb.  1.43671    9 13 48.00   +37 01 24.7   19.8
           1.44881    9 13 46.79   +37 01 31.4   20.0
           1.46190    9 13 45.46   +37 01 38.7   20.8
          13.32055    8 53 00.98   +38 32 19.5   21.0
          13.33328    8 52 59.58   +38 32 24.2   21.0
          13.34612    8 52 58.13   +38 32 28.7   20.7
          13.35836    8 52 56.76   +38 32 33.1   20.4

楕円軌道要素、位置推算表は次のとおり、

Orbital elements:
    P/2013 CU129 (PANSTARRS)
Epoch 2013 Aug. 16.0 TT = JDT 2456520.5
T 2013 Aug. 6.93249 TT                                  MPC
q   0.8001483            (2000.0)            P               Q
n   0.20171999     Peri.  211.97225     -0.21336378     +0.96509082
a   2.8794094      Node    46.20967     -0.84618341     -0.10483687
e   0.7221138      Incl.   12.14771     -0.48831295     -0.24001864
P   4.89
From 68 observations 2013 Feb. 1-June 5, mean residual 0".3.

    P/2013 CU129 (PANSTARRS)
Epoch 2018 June 11.0 TT = JDT 2458280.5
T 2018 June 24.38945 TT                                 MPC
q   0.7978542            (2000.0)            P               Q
n   0.20191075     Peri.  211.92764     -0.21381121     +0.96496939
a   2.8775956      Node    46.22826     -0.84612800     -0.10514887
e   0.7227358      Incl.   12.15543     -0.48821324     -0.24037012
P   4.88
From 68 observations 2013 Feb. 1-June 5, mean residual 0".3.

    P/2013 CU129 (PANSTARRS)
Epoch 2013 Apr. 18.0 TT = JDT 2456400.5
T 2013 Aug. 6.93382 TT                                  MPC
q   0.8001559            (2000.0)            P               Q
n   0.20174751     Peri.  211.97250     -0.21335953     +0.96509163
a   2.8791476      Node    46.20969     -0.84618361     -0.10483258
e   0.7220858      Incl.   12.14778     -0.48831446     -0.24001722
P   4.89
From 68 observations 2013 Feb. 1-June 5, mean residual 0".3.

Ephemeris:
    P/2013 CU129 (PANSTARRS)
Date    TT    R. A. (2000) Decl.     Delta      r     Elong.  Phase   m1    m2
2013 05 14    08 30 45.1 +30 05 41   1.4880  1.4819    69.8    39.8        20.3
...
2013 05 29    08 56 21.9 +26 39 10   1.4556  1.3234    61.8    42.4        20.1
...
2013 06 06    09 12 18.0 +24 29 02   1.4246  1.2392    58.2    44.1        19.9
...
2013 06 12    09 25 13.0 +22 40 03   1.3948  1.1770    55.8    45.5        19.8
2013 06 13    09 27 26.8 +22 20 50   1.3893  1.1667    55.5    45.8        19.8
2013 06 14    09 29 41.9 +22 01 18   1.3836  1.1565    55.1    46.1        19.8
...
2013 06 20    09 43 39.3 +19 57 02   1.3462  1.0961    53.1    47.8        19.6
...
2013 06 28    10 03 25.2 +16 50 37   1.2878  1.0194    50.9    50.7        19.5
...
2013 07 13    10 44 01.5 +09 44 30   1.1539  0.8954    48.2    57.8        19.2

Computer: Williams

(CBET 3558、MPEC 2013-L64)
フラット表示 前のトピック | 次のトピック

題名 投稿者 日時
 » Comet P/2013 CU129 (PANSTARRS) 佐藤裕久 2013-6-15 4:53

投稿するにはまず登録を
 
© 1999 Tsutomu Seki.